Weather in Borkovo

Russia / Novosibirsk Oblast     54°13′24″N   84°03′21″E
temp.,
°C
wind,
m/s
gust,
m/s
humid.,
%
clouds,
%
prec.,
mm/h
press.,
hPa
HPBL,
m
27 february, sat
sat2701:00−24sw51194100 0.2 1037711
04:00−24sw41095100 0.1 1038608
07:00−24sw4997100 0.3 1038527
10:00−23sw4995100 0.2 1039528
13:00−21sw5892100 0.3 1039688
16:00−20sw4790100 0.1 1039723
19:00−22sw2396100 0.1 103954
22:00−26sw239865 0.0 104022
28 february, sun
sun2801:00−28ssw229933 0.0 104019
04:00−29s239910 0.0 103919
07:00−29sse2310031 0.0 103939
10:00−25sse369851 0.0 1038185
13:00−18sse489374 0.0 1035368
16:00−14s5986100 0.0 1032676
19:00−14se4995100 0.2 1028328
22:00−13sse51195100 0.8 1025412
1 march, mon
mon101:00−10sse41195100 2.0 1021554
04:00−9s51294100 1.3 1018831
07:00−7s61295100 3.1 1014881
10:00−6ssw71394100 2.4 1011989
13:00−3ssw91593100 3.3 1010912
16:00−2sw91693100 0.6 10091092
19:000sw71395100 2.6 10091012
22:00−1wsw51197100 1.8 1010781
2 march, tue
tue201:00−2wsw61295100 2.9 1012766
04:00−6w3897100 0.7 1014453
07:00−10wnw249699 1.2 1017102
10:00−10wsw3695100 0.2 1018358
13:00−9wsw3693100 0.3 1019440
16:00−7wsw2491100 0.2 1018510
19:00−9wsw1195100 0.3 101621
22:00−10e1196100 0.0 101621
3 march, wed
wed301:00−10e2297100 0.1 101345
04:00−9ne2396100 0.8 1011114
07:00−9n2396100 1.6 1012113
10:00−9wnw2395100 0.6 1013189
13:00−8w359399 0.8 1014453
16:00−7w3691100 0.4 1016693
19:00−10wsw4894100 0.8 1018387
22:00−13wsw4895100 0.3 1020289